Voltar ao catálogo

STARLINK-3250

AtivoComunicaçõesVLEO
NORAD 49749·PAYLOAD·🇺🇸 United States

Lançado Dec 2, 2021 de Cape Canaveral Space Force Station

Loading…

Próximas Passagens (próximas 24 horas)

TLE

AtualizadoSource: CelesTrak SupGP

Época: Sep 15, 2026, 01:54 UTC

1 49749C 21115AB  26258.07965278  .00015874  00000+0  51056-3 0  2582
2 49749  53.1608   5.1015 0001058  82.0039 161.4930 15.31687765    10

Acompanhe STARLINK-3250 em tempo real com AllMySat

Download on the App Store